[[{"header":{"parameterUnit":"m.s-1","parameterCategory":1,"la1":30.2992,"la2":30.254,"lo1":-89.0895,"lo2":-89.0443,"dy":0.0025,"dx":0.0025,"nx":19,"ny":19,"refTime":"2026-04-18T09:00:00:Z","depth":0,"parameterNumber":2,"parameterNumberName":"U-component_of_WINDS"},"data":[0,0,0,-3.1027,-3.103,-3.1151,-3.1151,-3.1358,-3.1361,0,0,0,0,0,0,0,0,0,0,0,-3.1022,-3.1025,-3.1026,-3.103,-3.1151,-3.1151,-3.1358,-3.1361,0,0,0,0,0,0,0,0,0,0,0,-3.1021,-3.1024,-3.1027,-3.1031,-3.1151,-3.1151,-3.1358,-3.1248,0,0,0,0,0,0,0,0,0,0,-3.1121,-3.1148,-3.1024,-3.1027,-3.1032,-3.1151,-3.1151,-3.1242,-3.1255,-3.1326,0,-3.1398,0,-3.1383,-3.1378,-3.1379,0,0,0,-3.1007,-3.1138,-3.1141,-3.1028,-3.1033,-3.1151,-3.109,-3.1248,-3.1263,-3.1344,-3.14,-3.1406,-3.1386,-3.138,-3.1381,-3.1871,-3.1874,0,0,-3.1,-3.1062,-3.1132,-3.1153,-3.1137,-3.1086,-3.1094,-3.1256,-3.1322,-3.1401,-3.141,-3.139,-3.1381,-3.1383,-3.1868,-3.1872,0,0,0,-3.0997,-3.1058,-3.1056,-3.1146,-3.1163,-3.109,-3.1099,-3.1315,-3.1309,-3.1412,-3.1392,-3.1383,-3.1386,-3.1864,-3.1869,-3.21,0,0,0,-3.0992,-3.1056,-3.1055,-3.1094,-3.1161,-3.1241,-3.1155,-3.1298,-3.1314,-3.1391,-3.1383,-3.1388,-3.186,-3.1867,-3.2085,-3.2201,0,0,0,-3.1004,-3.1057,-3.1085,-3.1097,-3.115,-3.1236,-3.1239,-3.13,-3.1304,-3.1379,-3.1389,-3.1857,-3.1865,-3.2073,-3.218,-3.2353,0,0,0,-3.1035,-3.1287,-3.109,-3.1363,-3.115,-3.1376,-3.1237,-3.1403,-3.1494,-3.1384,-3.1861,-3.1869,-3.2068,-3.2166,-3.2339,-3.2514,-3.259,0,0,-3.1388,-3.1332,-3.1487,-3.1314,-3.1592,-3.1353,-3.1664,-3.1689,-3.1639,-3.1797,-3.1808,-3.209,-3.2178,-3.235,-3.2986,-3.3048,0,0,0,-3.162,-3.1735,-3.1794,-3.1884,-3.1908,-3.194,-3.1911,-3.192,-3.205,-3.1733,-3.2193,-3.2244,-3.2342,-3.2423,-3.2476,-3.2558,-3.1907,-3.1906,-3.1905,-3.2214,-3.2135,-3.2389,-3.2326,-3.2414,-3.238,-3.2446,-3.2452,-3.2347,-3.2457,-3.2507,-3.2902,-3.2999,-3.3038,-3.3125,-3.2585,-3.2586,-3.2587,-3.2588,-3.273,-3.2881,-3.2732,-3.2926,-3.2842,-3.3003,-3.2979,-3.2899,-3.3039,-3.2858,-3.2941,-3.2758,-3.3108,-3.318,-3.2604,-3.2601,-3.2599,-3.2598,-3.2596,-3.3117,-3.3176,-3.318,-3.3302,-3.3404,-3.3327,-3.3469,-3.3384,-3.3306,-3.3387,-3.3433,-3.3429,-3.342,-3.3413,-3.3414,-3.3415,-3.3417,-3.3418,-3.3418,-3.352,-3.3517,-3.3646,-3.3692,-3.3738,-3.3789,-3.3754,-3.3797,-3.3825,-3.3753,-3.3752,-3.3641,-3.3153,-3.3038,-3.344,-3.3436,-3.3433,-3.3431,-3.343,-3.4087,-3.3944,-3.4145,-3.4192,-3.4237,-3.4347,-3.4233,-3.4329,-3.4352,-3.4425,-3.4292,-3.3943,-3.3881,-3.3839,-3.3743,-3.4304,-3.4304,-3.4304,-3.4304,-3.442,-3.4376,-3.4563,-3.4644,-3.4712,-3.463,-3.4861,-3.4835,-3.4786,-3.4796,-3.47,-3.4562,-3.4523,-3.4485,-3.4428,-3.4338,-3.5038,-3.5038,-3.5039,-3.4767,-3.4726,-3.4941,-3.4889,-3.4917,-3.4945,-3.516,-3.526,-3.5173,-3.5067,-3.4804,-3.4773,-3.4549,-3.4479,-3.4378,-3.4292,-3.4124,0,0]},{"header":{"parameterUnit":"m.s-1","parameterCategory":1,"la1":30.2992,"la2":30.254,"lo1":-89.0895,"lo2":-89.0443,"dy":0.0025,"dx":0.0025,"nx":19,"ny":19,"refTime":"2026-04-18T09:00:00:Z","depth":0,"parameterNumber":3,"parameterNumberName":"V-component_of_WINDS"},"data":[0,0,0,-5.6898,-5.6902,-5.709,-5.7091,-5.7348,-5.7351,0,0,0,0,0,0,0,0,0,0,0,-5.6858,-5.686,-5.6898,-5.6903,-5.709,-5.7091,-5.7348,-5.7351,0,0,0,0,0,0,0,0,0,0,0,-5.6856,-5.6859,-5.6862,-5.6904,-5.709,-5.7091,-5.7347,-5.7198,0,0,0,0,0,0,0,0,0,0,-5.7013,-5.6991,-5.6859,-5.6862,-5.6905,-5.709,-5.7091,-5.7191,-5.7208,-5.7272,0,-5.7337,0,-5.7349,-5.737,-5.7371,0,0,0,-5.6891,-5.6977,-5.7015,-5.6863,-5.6907,-5.709,-5.7002,-5.72,-5.7219,-5.7295,-5.7341,-5.735,-5.7353,-5.7371,-5.7373,-5.7793,-5.7795,0,0,-5.688,-5.6899,-5.7002,-5.7028,-5.7005,-5.6996,-5.7008,-5.7211,-5.7261,-5.7342,-5.7355,-5.7357,-5.7373,-5.7375,-5.7791,-5.7794,0,0,0,-5.6859,-5.6892,-5.6924,-5.7018,-5.7051,-5.7002,-5.7016,-5.7252,-5.7261,-5.7358,-5.736,-5.7375,-5.7378,-5.7788,-5.7792,-5.7936,0,0,0,-5.6852,-5.6879,-5.692,-5.6933,-5.7047,-5.7155,-5.7052,-5.7247,-5.7269,-5.7359,-5.7375,-5.7381,-5.7785,-5.779,-5.7926,-5.8001,0,0,0,-5.684,-5.6877,-5.691,-5.6933,-5.7015,-5.7151,-5.7171,-5.7251,-5.7272,-5.7371,-5.7382,-5.7783,-5.7789,-5.7917,-5.7986,-5.8117,0,0,0,-5.6832,-5.7035,-5.6913,-5.7139,-5.7014,-5.724,-5.717,-5.7336,-5.7439,-5.7376,-5.7786,-5.7791,-5.7914,-5.7977,-5.8108,-5.8232,-5.8285,0,0,-5.7097,-5.7067,-5.7199,-5.7095,-5.7349,-5.7209,-5.7482,-5.7557,-5.7548,-5.7711,-5.7721,-5.7929,-5.7985,-5.8115,-5.8575,-5.8618,0,0,0,-5.7289,-5.7384,-5.7447,-5.7547,-5.7611,-5.7671,-5.7702,-5.7729,-5.7867,-5.7637,-5.8011,-5.8044,-5.8119,-5.8177,-5.8213,-5.8277,-5.7819,-5.7818,-5.7818,-5.7692,-5.7671,-5.7887,-5.7889,-5.7986,-5.8017,-5.8092,-5.8133,-5.8083,-5.8171,-5.822,-5.8502,-5.8571,-5.8598,-5.8664,-5.8283,-5.8284,-5.8284,-5.8284,-5.8079,-5.8211,-5.8139,-5.8324,-5.8299,-5.8452,-5.8487,-5.8446,-5.8583,-5.8464,-5.8529,-5.8402,-5.8646,-5.8702,-5.8295,-5.8293,-5.8292,-5.8291,-5.829,-5.8341,-5.8401,-5.8432,-5.8573,-5.8683,-5.8675,-5.8811,-5.8783,-5.8757,-5.8821,-5.8869,-5.8867,-5.8861,-5.8846,-5.8847,-5.8848,-5.8849,-5.8849,-5.885,-5.8601,-5.8632,-5.8751,-5.8835,-5.8895,-5.8969,-5.9,-5.9056,-5.9111,-5.908,-5.908,-5.902,-5.8674,-5.8587,-5.8865,-5.8863,-5.8861,-5.8859,-5.8858,-5.9004,-5.8908,-5.9093,-5.9153,-5.9248,-5.9358,-5.932,-5.9437,-5.9479,-5.9546,-5.9472,-5.9221,-5.9187,-5.9158,-5.9086,-5.9476,-5.9476,-5.9476,-5.9476,-5.9226,-5.9206,-5.9388,-5.9485,-5.9577,-5.9561,-5.9766,-5.9791,-5.98,-5.9824,-5.9763,-5.9666,-5.9637,-5.962,-5.9581,-5.9514,-6.0004,-6.0005,-6.0005,-5.9472,-5.9459,-5.9642,-5.9653,-5.9725,-5.9785,-5.9978,-6.0089,-6.0079,-6.0026,-5.9842,-5.982,-5.9662,-5.9612,-5.9556,-5.9497,-5.9373,0,0]}]]